Orbital Elements
Epoch 2017 Feb. 16.0 TT = JDT 2457800.5
T 2017 Feb. 1.65500 TT MPCW
q 2.3000180 (2000.0) P Q
z +0.0079197 Peri. 137.34868 -0.04816663 -0.76811681
+/-0.0000053 Node 56.23057 -0.98921371 -0.05184721
e 0.9817845 Incl. 129.81766 +0.13833370 -0.63820721
From 128 observations 2016 Oct. 6-2017 May 26, mean residual 0".5.
|